GFSGBSN_prec_precacc_336.txt.gz
Total_Precipitation_Accumulation
0.68 0.85 0.84 0.65 0.59 0.60 0.51 0.43 0.33 0.22 0.14 0.11 0.09 0.07 0.06 0.06 0.06 0.04 0.03 0.02 0.03 0.02 0.02 0.02 0.03 0.03 0.17 0.32 0.09 0.00 0.00 0.00 0.00 0.00 0.00 0.00 0.00 0.00 0.00 0.00 0.00 0.00 0.00 0.00 0.00 0.03 0.02
0.85 0.82 0.99 0.90 0.73 0.65 0.68 0.56 0.40 0.26 0.18 0.12 0.10 0.08 0.06 0.06 0.06 0.05 0.05 0.04 0.04 0.04 0.04 0.03 0.05 0.18 0.57 0.61 0.02 0.00 0.00 0.00 0.00 0.00 0.00 0.00 0.01 0.01 0.02 0.00 0.00 0.00 0.00 0.00 0.00 0.02 0.02
1.22 0.97 0.81 0.85 0.73 0.56 0.56 0.64 0.57 0.47 0.37 0.26 0.17 0.11 0.07 0.07 0.06 0.05 0.04 0.05 0.05 0.05 0.05 0.06 0.10 0.41 1.21 0.29 0.00 0.00 0.00 0.00 0.00 0.00 0.01 0.01 0.02 0.05 0.09 0.05 0.01 0.02 0.03 0.01 0.00 0.01 0.02
1.82 1.56 1.41 1.38 1.35 1.07 0.88 0.82 0.82 0.64 0.46 0.30 0.21 0.12 0.10 0.07 0.06 0.05 0.05 0.04 0.04 0.06 0.08 0.12 0.29 1.12 1.74 0.03 0.00 0.00 0.00 0.00 0.00 0.00 0.00 0.01 0.03 0.10 0.15 0.13 0.10 0.11 0.17 0.11 0.03 0.01 0.02
2.14 2.12 2.06 1.87 1.71 1.64 1.41 1.25 1.22 1.24 0.98 0.69 0.51 0.38 0.25 0.14 0.10 0.09 0.08 0.10 0.13 0.16 0.24 0.42 1.09 1.41 0.91 0.06 0.03 0.00 0.00 0.02 0.01 0.00 0.01 0.06 0.17 0.25 0.34 0.44 0.44 0.23 0.17 0.09 0.02 0.00 0.02
2.08 1.94 1.90 1.92 1.73 1.61 1.54 1.31 1.30 1.34 1.40 1.12 0.91 0.74 0.55 0.33 0.23 0.15 0.14 0.32 0.50 0.52 0.44 0.74 1.77 1.76 0.60 0.11 0.00 0.00 0.00 0.01 0.04 0.05 0.07 0.13 0.33 0.49 0.53 0.60 0.53 0.16 0.10 0.04 0.02 0.00 0.02
1.99 1.78 1.66 1.72 1.62 1.43 1.31 1.20 1.03 1.03 1.14 1.16 0.97 0.77 0.62 0.51 0.41 0.37 0.45 0.70 0.85 0.67 0.53 0.28 0.40 0.18 0.01 0.00 0.02 0.01 0.00 0.11 0.26 0.56 0.30 0.19 0.40 0.61 0.25 0.13 0.14 0.12 0.13 0.11 0.04 0.00 0.05
1.62 1.61 1.45 1.36 1.39 1.29 1.22 1.23 1.12 1.08 1.05 1.18 1.02 0.76 0.55 0.46 0.40 0.41 0.49 0.64 0.48 0.78 0.88 0.11 0.02 0.02 0.00 0.01 0.15 0.25 0.22 0.50 0.69 0.81 0.56 1.05 0.82 0.12 0.07 0.09 0.19 0.24 0.28 0.17 0.06 0.02 0.14
1.95 1.83 1.67 1.48 1.38 1.41 1.25 1.13 1.05 1.03 1.04 1.08 1.19 1.10 0.71 0.50 0.45 0.42 0.34 0.38 0.37 0.94 2.61 0.90 0.03 0.01 0.00 0.07 0.05 0.08 0.20 0.43 0.62 0.74 0.81 0.79 0.50 0.22 0.22 0.29 0.37 0.32 0.23 0.14 0.13 0.12 0.23
1.89 1.78 1.80 1.76 1.67 1.73 1.72 1.54 1.40 1.18 1.21 1.14 1.21 1.44 1.22 0.90 0.70 0.35 0.46 0.47 0.38 1.02 4.45 2.30 0.04 0.04 0.04 0.07 0.10 0.01 0.09 0.20 0.52 0.81 0.86 1.10 0.41 0.31 0.60 0.81 0.92 1.18 0.61 0.42 0.40 0.59 0.56
1.84 1.74 1.66 1.65 1.65 1.87 2.04 2.00 1.74 1.64 1.56 1.43 1.50 1.51 1.70 1.54 0.77 0.63 0.64 0.58 0.90 2.62 6.70 1.87 0.03 0.05 0.03 0.08 0.11 0.04 0.02 0.31 0.39 0.32 0.80 1.33 0.68 0.38 0.51 0.58 0.47 0.63 0.52 0.91 1.35 1.64 1.89
1.65 1.56 1.64 1.69 1.62 1.66 1.89 2.03 1.95 1.62 1.52 1.66 1.56 1.83 2.10 1.88 0.97 0.61 0.63 0.91 2.93 6.48 5.94 0.78 0.03 0.08 0.22 0.21 0.13 0.12 0.12 0.35 0.46 0.64 0.66 0.43 0.20 0.39 0.54 0.55 0.72 0.85 1.06 1.38 1.49 1.69 3.01
1.38 1.39 1.35 1.42 1.49 1.62 2.05 2.06 2.16 1.83 1.81 1.90 1.82 2.07 2.36 1.88 1.12 0.80 1.22 2.71 6.64 6.58 1.47 0.17 0.07 0.12 0.20 0.30 0.39 0.45 0.63 0.75 1.09 1.41 0.88 0.43 0.22 0.09 0.21 0.49 0.55 1.05 1.94 3.28 3.33 3.24 3.06
1.57 1.41 1.30 1.28 1.28 1.32 1.83 2.10 2.14 2.16 2.01 2.24 2.29 2.20 2.52 1.62 1.30 1.70 2.91 5.70 7.21 2.06 0.25 0.06 0.04 0.07 0.24 0.42 0.52 0.57 0.83 1.09 1.21 1.46 1.70 1.46 0.97 0.36 0.39 0.58 0.68 0.60 1.35 3.31 3.78 2.07 1.33
1.69 1.60 1.46 1.35 1.22 1.27 1.49 2.08 2.18 2.37 2.38 2.60 3.14 2.81 2.72 1.79 1.72 2.82 5.50 7.57 3.31 0.68 0.38 0.26 0.15 0.51 0.70 0.77 0.98 0.76 0.68 0.97 1.60 2.47 3.72 3.64 2.73 1.10 0.65 0.54 0.74 0.89 1.26 1.37 2.76 2.17 3.06
1.86 1.86 1.67 1.60 1.30 1.33 1.51 2.18 2.31 2.58 2.62 2.99 3.77 3.76 2.56 1.66 2.44 4.26 7.40 4.97 1.20 0.42 0.76 0.94 1.34 1.27 1.35 0.91 1.34 1.58 1.62 1.79 1.74 2.08 2.74 3.96 3.70 1.61 1.35 1.27 1.21 1.37 1.60 2.86 4.57 6.31 4.94
2.05 2.03 1.70 1.65 1.48 1.39 1.49 2.26 2.63 2.56 2.96 3.32 3.93 4.56 2.18 2.19 4.71 6.89 6.70 2.37 0.55 0.15 0.29 1.17 1.73 1.68 1.16 1.11 1.37 1.51 1.67 1.25 1.10 1.44 1.75 2.52 3.52 1.56 1.00 1.70 2.36 2.56 3.10 3.66 5.10 5.52 5.40
2.25 2.24 1.89 1.77 1.67 1.48 1.54 2.20 2.87 3.01 3.86 4.73 5.09 4.42 2.11 3.61 7.03 6.57 3.30 1.13 0.56 0.31 0.32 0.84 1.15 1.29 1.36 1.38 1.52 2.08 1.62 1.23 0.68 0.85 1.20 1.37 2.63 1.47 0.96 0.64 0.88 1.50 2.82 4.13 5.99 5.58 5.17
2.55 2.43 2.05 1.97 1.92 1.62 1.57 2.04 3.11 3.51 4.44 5.47 6.04 3.70 3.07 4.77 6.06 3.30 1.42 0.69 0.64 0.60 0.52 1.03 1.15 1.37 1.53 1.63 1.97 1.41 1.51 0.97 0.77 1.01 1.49 1.59 2.43 2.01 1.34 1.43 1.61 1.58 1.80 2.54 3.77 5.02 5.33
2.59 2.55 2.24 2.14 2.28 1.98 1.71 1.99 3.24 3.61 4.49 6.06 6.69 4.90 4.83 6.16 3.60 1.46 1.35 1.26 1.05 0.60 0.65 0.83 1.20 1.31 1.32 1.09 1.23 1.48 0.95 0.60 0.42 0.52 0.83 1.63 2.41 1.90 1.73 1.66 1.93 2.06 1.70 1.76 2.97 4.87 3.90
2.87 2.70 2.39 2.19 2.48 2.23 1.95 1.99 3.15 4.00 5.11 7.44 8.26 4.34 2.40 3.39 2.83 1.65 1.55 1.75 1.16 0.91 0.84 0.71 1.17 1.09 1.30 1.49 0.90 0.91 0.83 0.58 0.37 0.34 0.47 1.20 2.28 1.28 1.01 1.01 0.85 1.29 1.83 1.91 2.26 2.30 3.04
2.90 2.80 2.59 2.33 2.57 2.42 2.18 2.22 3.03 4.29 6.38 9.50 7.84 2.66 1.53 1.00 0.75 1.41 2.57 2.35 1.27 0.93 1.26 0.97 0.94 0.63 0.87 1.31 1.18 1.12 1.08 1.16 0.90 0.54 0.57 0.78 1.54 1.31 1.06 0.77 0.67 1.42 1.75 1.45 1.42 1.82 2.21
3.10 3.02 2.92 2.68 2.77 2.48 2.60 2.58 3.15 4.38 7.40 10.59 6.00 2.03 2.48 1.57 0.88 1.53 1.66 1.31 1.06 1.27 1.10 0.85 1.06 1.35 1.04 0.75 0.77 0.81 0.76 1.06 1.04 0.96 0.99 0.92 1.18 1.29 1.02 0.46 0.87 2.24 1.96 1.16 1.09 0.87 0.84
3.10 3.17 2.90 3.25 3.03 2.67 2.62 2.93 3.63 4.50 5.82 5.86 3.78 2.07 3.47 2.71 1.48 1.08 0.73 0.82 0.94 1.25 1.57 0.77 0.84 1.00 0.67 0.51 0.61 0.74 0.65 0.50 0.59 0.49 0.87 1.27 1.03 1.41 1.09 0.95 2.87 2.32 0.93 0.70 0.56 0.41 0.44
2.84 3.15 2.78 3.05 3.42 2.94 2.57 2.82 3.96 4.49 4.13 3.90 3.05 2.83 3.62 2.65 0.95 0.90 0.90 0.83 0.79 1.18 1.32 0.91 0.70 0.76 0.76 0.89 1.44 1.39 1.02 0.83 0.40 0.41 0.38 0.55 1.21 1.79 1.51 1.19 1.77 1.46 0.52 0.47 0.46 0.40 0.26
2.92 3.09 2.65 2.80 3.23 3.28 2.81 2.86 3.75 4.29 3.85 3.92 2.94 3.21 4.43 3.81 1.40 0.60 1.13 1.29 1.25 1.51 1.67 1.07 0.57 0.44 0.78 1.26 1.83 1.79 1.26 0.83 0.57 0.55 0.47 0.71 1.15 2.39 2.12 1.76 2.22 1.26 0.22 0.17 0.42 0.88 0.26
3.45 3.14 2.71 2.63 2.79 3.07 3.14 3.13 3.20 3.77 4.03 4.27 3.36 2.75 5.13 4.78 1.05 0.60 0.94 1.20 1.50 1.50 1.79 1.40 1.11 1.01 1.17 1.74 1.86 1.37 1.20 0.93 1.01 0.89 0.91 1.25 1.87 2.65 2.49 2.72 2.01 0.94 0.35 0.20 1.10 1.41 0.37
3.43 3.40 2.53 2.44 2.55 2.45 2.59 3.26 3.48 3.39 3.96 5.12 3.91 2.43 3.66 4.19 1.38 0.66 0.61 0.86 0.98 1.40 1.65 1.93 2.06 2.12 2.10 2.28 2.06 1.56 1.39 1.34 1.15 0.90 1.11 1.56 1.89 1.93 2.17 2.71 2.55 0.83 0.63 0.94 1.18 0.51 0.23
3.06 3.42 2.57 2.43 2.53 2.37 2.13 2.47 3.53 3.64 3.83 5.02 4.80 3.03 3.38 3.94 2.18 0.91 0.47 0.44 0.59 0.92 1.32 1.53 2.01 1.74 2.42 2.82 2.31 1.69 1.43 1.47 1.13 1.40 0.88 1.58 1.43 1.47 1.42 1.91 1.72 1.34 1.12 0.66 0.39 0.48 0.39

GFSGBSN_prec_precacc_339.txt.gz
Total_Precipitation_Accumulation
0.68 0.85 0.84 0.65 0.59 0.60 0.51 0.43 0.33 0.22 0.14 0.11 0.09 0.07 0.06 0.06 0.06 0.04 0.03 0.02 0.03 0.02 0.02 0.02 0.03 0.03 0.17 0.32 0.09 0.00 0.00 0.00 0.00 0.00 0.00 0.00 0.00 0.00 0.00 0.00 0.00 0.00 0.00 0.00 0.00 0.03 0.02
0.85 0.82 0.99 0.90 0.73 0.65 0.68 0.56 0.40 0.26 0.18 0.12 0.10 0.08 0.06 0.06 0.06 0.05 0.05 0.04 0.04 0.04 0.04 0.03 0.05 0.18 0.57 0.61 0.02 0.00 0.00 0.00 0.00 0.00 0.00 0.00 0.01 0.01 0.02 0.00 0.00 0.00 0.00 0.00 0.00 0.02 0.02
1.22 0.97 0.81 0.85 0.73 0.56 0.56 0.64 0.57 0.47 0.37 0.26 0.17 0.11 0.07 0.07 0.06 0.05 0.04 0.05 0.05 0.05 0.05 0.06 0.10 0.41 1.21 0.29 0.00 0.00 0.00 0.00 0.00 0.00 0.01 0.01 0.02 0.05 0.09 0.05 0.01 0.02 0.03 0.01 0.00 0.01 0.02
1.82 1.56 1.41 1.38 1.35 1.07 0.88 0.82 0.82 0.64 0.46 0.30 0.21 0.12 0.10 0.07 0.06 0.05 0.05 0.04 0.04 0.06 0.08 0.12 0.29 1.12 1.74 0.03 0.00 0.00 0.00 0.00 0.00 0.00 0.00 0.01 0.03 0.10 0.15 0.13 0.10 0.11 0.17 0.11 0.03 0.01 0.02
2.14 2.12 2.06 1.87 1.71 1.64 1.41 1.25 1.22 1.24 0.98 0.69 0.51 0.38 0.25 0.14 0.10 0.09 0.08 0.10 0.13 0.16 0.24 0.42 1.09 1.41 0.91 0.06 0.03 0.00 0.00 0.02 0.01 0.00 0.01 0.06 0.17 0.25 0.34 0.44 0.44 0.23 0.17 0.09 0.02 0.00 0.02
2.08 1.94 1.90 1.92 1.73 1.61 1.54 1.31 1.30 1.34 1.40 1.12 0.91 0.74 0.55 0.33 0.23 0.15 0.14 0.32 0.50 0.52 0.44 0.74 1.77 1.76 0.60 0.11 0.00 0.00 0.00 0.01 0.04 0.05 0.07 0.13 0.33 0.49 0.53 0.60 0.53 0.16 0.10 0.04 0.02 0.00 0.02
1.99 1.78 1.66 1.72 1.62 1.43 1.31 1.20 1.03 1.03 1.14 1.16 0.97 0.77 0.62 0.51 0.41 0.37 0.45 0.70 0.85 0.67 0.53 0.28 0.40 0.18 0.01 0.00 0.02 0.01 0.00 0.11 0.26 0.56 0.30 0.19 0.40 0.61 0.25 0.13 0.14 0.12 0.13 0.11 0.04 0.00 0.05
1.62 1.61 1.45 1.36 1.39 1.29 1.22 1.23 1.12 1.08 1.05 1.18 1.02 0.76 0.55 0.46 0.40 0.41 0.49 0.64 0.48 0.78 0.88 0.11 0.02 0.02 0.00 0.01 0.15 0.25 0.22 0.50 0.69 0.81 0.56 1.05 0.82 0.12 0.07 0.09 0.19 0.24 0.28 0.17 0.06 0.02 0.14
1.95 1.83 1.67 1.48 1.38 1.41 1.25 1.13 1.05 1.03 1.04 1.08 1.19 1.10 0.71 0.50 0.45 0.42 0.34 0.38 0.37 0.94 2.61 0.90 0.03 0.01 0.00 0.07 0.05 0.08 0.20 0.43 0.62 0.74 0.81 0.79 0.50 0.22 0.22 0.29 0.37 0.32 0.23 0.14 0.13 0.12 0.23
1.89 1.78 1.80 1.76 1.67 1.73 1.72 1.54 1.40 1.18 1.21 1.14 1.21 1.44 1.22 0.90 0.70 0.35 0.46 0.47 0.38 1.02 4.45 2.30 0.04 0.04 0.04 0.07 0.10 0.01 0.09 0.20 0.52 0.81 0.86 1.10 0.41 0.31 0.60 0.81 0.92 1.18 0.61 0.42 0.40 0.59 0.56
1.84 1.74 1.66 1.65 1.65 1.87 2.04 2.00 1.74 1.64 1.56 1.43 1.50 1.51 1.70 1.54 0.77 0.63 0.64 0.58 0.90 2.62 6.71 1.87 0.03 0.05 0.03 0.08 0.11 0.04 0.02 0.31 0.39 0.32 0.80 1.33 0.68 0.38 0.51 0.58 0.47 0.63 0.52 0.91 1.35 1.64 1.89
1.65 1.56 1.64 1.69 1.62 1.66 1.89 2.03 1.95 1.62 1.52 1.66 1.56 1.83 2.10 1.88 0.97 0.61 0.63 0.91 2.93 6.48 5.94 0.78 0.03 0.08 0.22 0.21 0.13 0.12 0.12 0.35 0.46 0.64 0.66 0.43 0.20 0.39 0.54 0.55 0.72 0.85 1.06 1.38 1.49 1.69 3.03
1.38 1.39 1.35 1.42 1.49 1.62 2.05 2.06 2.16 1.83 1.81 1.90 1.82 2.07 2.36 1.88 1.12 0.80 1.22 2.71 6.64 6.59 1.47 0.17 0.07 0.12 0.20 0.30 0.39 0.45 0.63 0.75 1.09 1.41 0.88 0.43 0.22 0.09 0.21 0.49 0.55 1.05 1.94 3.28 3.33 3.25 3.10
1.57 1.41 1.30 1.28 1.28 1.32 1.83 2.10 2.14 2.16 2.01 2.24 2.29 2.20 2.52 1.62 1.30 1.70 2.91 5.70 7.22 2.06 0.25 0.06 0.04 0.07 0.24 0.42 0.52 0.57 0.83 1.09 1.21 1.46 1.70 1.46 0.97 0.36 0.39 0.58 0.68 0.60 1.35 3.32 3.80 2.09 1.40
1.69 1.60 1.46 1.35 1.22 1.27 1.49 2.08 2.18 2.37 2.38 2.60 3.14 2.81 2.72 1.79 1.72 2.82 5.50 7.58 3.32 0.68 0.38 0.26 0.15 0.51 0.70 0.77 0.98 0.76 0.68 0.97 1.60 2.47 3.72 3.64 2.73 1.10 0.65 0.54 0.74 0.89 1.27 1.39 2.79 2.21 3.12
1.86 1.86 1.67 1.60 1.30 1.33 1.51 2.18 2.31 2.58 2.62 2.99 3.77 3.76 2.56 1.66 2.44 4.26 7.40 4.97 1.20 0.42 0.76 0.94 1.34 1.27 1.35 0.91 1.34 1.58 1.62 1.79 1.74 2.08 2.74 3.96 3.70 1.61 1.35 1.27 1.21 1.37 1.60 2.90 4.60 6.35 5.04
2.05 2.03 1.70 1.65 1.48 1.39 1.49 2.26 2.63 2.56 2.96 3.32 3.93 4.56 2.18 2.19 4.71 6.89 6.70 2.37 0.55 0.15 0.29 1.17 1.73 1.68 1.16 1.11 1.37 1.51 1.67 1.25 1.10 1.44 1.75 2.52 3.52 1.56 1.00 1.70 2.36 2.56 3.11 3.66 5.11 5.53 5.47
2.25 2.24 1.89 1.77 1.67 1.48 1.54 2.20 2.87 3.01 3.86 4.73 5.09 4.42 2.11 3.61 7.03 6.57 3.30 1.13 0.56 0.31 0.32 0.84 1.15 1.29 1.36 1.38 1.52 2.08 1.62 1.23 0.68 0.85 1.20 1.37 2.63 1.47 0.96 0.64 0.88 1.50 2.83 4.13 6.00 5.59 5.18
2.55 2.43 2.05 1.97 1.92 1.62 1.57 2.04 3.11 3.51 4.44 5.47 6.04 3.70 3.07 4.77 6.06 3.30 1.42 0.69 0.64 0.60 0.52 1.03 1.15 1.37 1.53 1.63 1.97 1.41 1.51 0.97 0.77 1.01 1.49 1.59 2.43 2.01 1.34 1.43 1.61 1.58 1.80 2.55 3.77 5.03 5.36
2.59 2.55 2.24 2.14 2.28 1.98 1.71 1.99 3.24 3.61 4.49 6.06 6.69 4.90 4.83 6.16 3.60 1.46 1.35 1.26 1.05 0.60 0.65 0.83 1.20 1.31 1.32 1.09 1.23 1.48 0.95 0.60 0.42 0.52 0.83 1.63 2.41 1.90 1.73 1.66 1.93 2.07 1.70 1.76 2.97 4.88 3.91
2.87 2.70 2.39 2.19 2.48 2.23 1.95 1.99 3.15 4.00 5.11 7.44 8.26 4.34 2.40 3.39 2.83 1.65 1.55 1.75 1.16 0.91 0.84 0.71 1.17 1.09 1.30 1.49 0.90 0.91 0.83 0.58 0.37 0.34 0.47 1.20 2.28 1.28 1.01 1.02 0.85 1.30 1.84 1.91 2.26 2.31 3.04
2.90 2.80 2.59 2.33 2.57 2.42 2.18 2.22 3.03 4.29 6.38 9.50 7.84 2.66 1.53 1.00 0.75 1.41 2.57 2.35 1.27 0.93 1.26 0.97 0.94 0.63 0.87 1.31 1.18 1.12 1.08 1.16 0.90 0.54 0.57 0.78 1.54 1.31 1.06 0.78 0.68 1.43 1.75 1.45 1.42 1.82 2.21
3.10 3.02 2.92 2.68 2.77 2.48 2.60 2.58 3.15 4.38 7.40 10.59 6.00 2.03 2.48 1.57 0.88 1.53 1.66 1.31 1.06 1.27 1.10 0.85 1.06 1.35 1.04 0.75 0.77 0.81 0.76 1.06 1.04 0.96 0.99 0.92 1.18 1.29 1.04 0.47 0.88 2.25 1.97 1.16 1.09 0.87 0.84
3.10 3.17 2.90 3.25 3.03 2.67 2.62 2.93 3.63 4.50 5.82 5.86 3.78 2.07 3.47 2.71 1.48 1.08 0.73 0.82 0.94 1.25 1.57 0.77 0.84 1.00 0.67 0.51 0.61 0.74 0.65 0.50 0.59 0.49 0.87 1.27 1.03 1.41 1.11 0.98 2.91 2.36 0.94 0.70 0.56 0.41 0.44
2.84 3.15 2.78 3.05 3.42 2.94 2.57 2.82 3.96 4.49 4.13 3.90 3.05 2.83 3.62 2.65 0.95 0.90 0.90 0.83 0.79 1.18 1.32 0.91 0.70 0.76 0.76 0.89 1.44 1.39 1.03 0.83 0.40 0.41 0.38 0.55 1.22 1.81 1.55 1.25 1.80 1.49 0.53 0.47 0.46 0.40 0.26
2.92 3.09 2.65 2.80 3.23 3.28 2.81 2.86 3.75 4.29 3.85 3.92 2.94 3.21 4.43 3.81 1.40 0.60 1.13 1.29 1.25 1.51 1.67 1.07 0.57 0.44 0.78 1.26 1.83 1.79 1.26 0.83 0.57 0.55 0.47 0.71 1.15 2.42 2.20 1.82 2.25 1.28 0.22 0.17 0.42 0.88 0.26
3.45 3.14 2.71 2.63 2.79 3.07 3.14 3.13 3.20 3.77 4.03 4.27 3.36 2.75 5.13 4.78 1.05 0.60 0.94 1.20 1.50 1.50 1.79 1.40 1.11 1.01 1.17 1.74 1.86 1.37 1.20 0.93 1.01 0.90 0.92 1.26 1.88 2.70 2.63 2.74 2.03 0.94 0.36 0.20 1.11 1.42 0.37
3.43 3.40 2.53 2.44 2.55 2.45 2.59 3.26 3.48 3.39 3.96 5.12 3.91 2.43 3.66 4.19 1.38 0.66 0.61 0.86 0.98 1.40 1.65 1.93 2.06 2.12 2.10 2.28 2.06 1.56 1.39 1.34 1.16 0.91 1.12 1.57 1.92 1.99 2.26 2.73 2.57 0.83 0.63 0.95 1.19 0.51 0.23
3.06 3.42 2.57 2.43 2.53 2.37 2.13 2.47 3.53 3.64 3.83 5.02 4.80 3.03 3.38 3.94 2.18 0.91 0.47 0.44 0.59 0.92 1.32 1.53 2.01 1.74 2.42 2.82 2.31 1.69 1.43 1.47 1.14 1.42 0.89 1.60 1.44 1.52 1.46 1.92 1.73 1.34 1.12 0.66 0.39 0.48 0.39

GFSGBSN_prec_precacc_342.txt.gz
Total_Precipitation_Accumulation
0.68 0.85 0.84 0.65 0.59 0.60 0.51 0.43 0.33 0.22 0.14 0.11 0.09 0.07 0.06 0.06 0.06 0.04 0.03 0.02 0.03 0.02 0.02 0.02 0.03 0.03 0.17 0.32 0.09 0.00 0.00 0.00 0.00 0.00 0.00 0.00 0.00 0.00 0.00 0.00 0.00 0.00 0.00 0.00 0.00 0.03 0.02
0.85 0.82 0.99 0.90 0.73 0.65 0.68 0.56 0.40 0.26 0.18 0.12 0.10 0.08 0.06 0.06 0.06 0.05 0.05 0.04 0.04 0.04 0.04 0.03 0.05 0.18 0.57 0.61 0.02 0.00 0.00 0.00 0.00 0.00 0.00 0.00 0.01 0.01 0.02 0.00 0.00 0.00 0.00 0.00 0.00 0.02 0.02
1.22 0.97 0.81 0.85 0.73 0.56 0.56 0.64 0.57 0.47 0.37 0.26 0.17 0.11 0.07 0.07 0.06 0.05 0.04 0.05 0.05 0.05 0.05 0.06 0.10 0.41 1.21 0.29 0.00 0.00 0.00 0.00 0.00 0.00 0.01 0.01 0.02 0.05 0.09 0.05 0.01 0.02 0.03 0.01 0.00 0.01 0.02
1.82 1.56 1.41 1.38 1.35 1.07 0.88 0.82 0.82 0.64 0.46 0.30 0.21 0.12 0.10 0.07 0.06 0.05 0.05 0.04 0.04 0.06 0.08 0.12 0.29 1.12 1.74 0.03 0.00 0.00 0.00 0.00 0.00 0.00 0.00 0.01 0.03 0.10 0.15 0.13 0.10 0.11 0.17 0.11 0.03 0.01 0.02
2.14 2.12 2.06 1.87 1.71 1.64 1.41 1.25 1.22 1.24 0.98 0.69 0.51 0.38 0.25 0.14 0.10 0.09 0.08 0.10 0.13 0.16 0.24 0.42 1.09 1.41 0.91 0.06 0.03 0.00 0.00 0.02 0.01 0.00 0.01 0.06 0.17 0.25 0.34 0.44 0.44 0.23 0.17 0.09 0.02 0.00 0.02
2.08 1.94 1.90 1.92 1.73 1.61 1.54 1.31 1.30 1.34 1.40 1.12 0.91 0.74 0.55 0.33 0.23 0.15 0.14 0.32 0.50 0.52 0.44 0.74 1.77 1.76 0.60 0.11 0.00 0.00 0.00 0.01 0.04 0.05 0.07 0.13 0.33 0.49 0.53 0.60 0.53 0.16 0.10 0.04 0.02 0.00 0.02
1.99 1.78 1.66 1.72 1.62 1.43 1.31 1.20 1.03 1.03 1.14 1.16 0.97 0.77 0.62 0.51 0.41 0.37 0.45 0.70 0.85 0.67 0.53 0.28 0.40 0.18 0.01 0.00 0.02 0.01 0.00 0.11 0.26 0.56 0.30 0.19 0.40 0.61 0.25 0.13 0.14 0.12 0.13 0.11 0.04 0.00 0.05
1.62 1.61 1.45 1.36 1.39 1.29 1.22 1.23 1.12 1.08 1.05 1.18 1.02 0.76 0.55 0.46 0.40 0.41 0.49 0.64 0.48 0.78 0.88 0.11 0.02 0.02 0.00 0.01 0.15 0.25 0.22 0.50 0.69 0.81 0.56 1.05 0.82 0.12 0.07 0.09 0.19 0.24 0.28 0.17 0.06 0.02 0.14
1.95 1.83 1.67 1.48 1.38 1.41 1.25 1.13 1.05 1.03 1.04 1.08 1.19 1.10 0.71 0.50 0.45 0.42 0.34 0.38 0.37 0.94 2.61 0.90 0.03 0.01 0.00 0.07 0.05 0.08 0.20 0.43 0.62 0.74 0.81 0.79 0.50 0.22 0.22 0.29 0.37 0.32 0.23 0.14 0.13 0.12 0.23
1.89 1.78 1.80 1.76 1.67 1.73 1.72 1.54 1.40 1.18 1.21 1.14 1.21 1.44 1.22 0.90 0.70 0.35 0.46 0.47 0.38 1.02 4.45 2.30 0.04 0.04 0.04 0.07 0.10 0.01 0.09 0.20 0.52 0.81 0.86 1.10 0.41 0.31 0.60 0.81 0.92 1.18 0.61 0.42 0.40 0.59 0.56
1.84 1.74 1.66 1.65 1.65 1.87 2.04 2.00 1.74 1.64 1.56 1.43 1.50 1.51 1.70 1.54 0.77 0.63 0.64 0.58 0.90 2.62 6.71 1.87 0.03 0.05 0.03 0.08 0.11 0.04 0.02 0.31 0.39 0.32 0.80 1.33 0.68 0.38 0.51 0.58 0.47 0.63 0.52 0.91 1.35 1.64 1.89
1.65 1.56 1.64 1.69 1.62 1.66 1.89 2.03 1.95 1.62 1.52 1.66 1.56 1.83 2.10 1.88 0.97 0.61 0.63 0.91 2.93 6.49 5.95 0.78 0.03 0.08 0.22 0.21 0.13 0.12 0.12 0.35 0.46 0.64 0.66 0.43 0.20 0.39 0.54 0.55 0.72 0.85 1.06 1.38 1.49 1.69 3.03
1.38 1.39 1.35 1.42 1.49 1.62 2.05 2.06 2.16 1.83 1.81 1.90 1.82 2.07 2.36 1.88 1.12 0.80 1.22 2.71 6.64 6.59 1.47 0.17 0.07 0.12 0.20 0.30 0.39 0.45 0.63 0.75 1.09 1.41 0.88 0.43 0.22 0.09 0.21 0.49 0.55 1.05 1.94 3.28 3.35 3.30 3.14
1.57 1.41 1.30 1.28 1.28 1.32 1.83 2.10 2.14 2.16 2.01 2.24 2.29 2.20 2.52 1.62 1.30 1.70 2.91 5.70 7.22 2.06 0.25 0.06 0.04 0.07 0.24 0.42 0.52 0.57 0.83 1.09 1.21 1.46 1.70 1.46 0.97 0.36 0.39 0.58 0.68 0.60 1.35 3.33 3.81 2.15 1.74
1.69 1.60 1.46 1.35 1.22 1.27 1.49 2.08 2.18 2.37 2.38 2.60 3.14 2.81 2.72 1.79 1.72 2.82 5.50 7.58 3.32 0.68 0.38 0.26 0.15 0.51 0.70 0.77 0.98 0.76 0.68 0.97 1.60 2.47 3.72 3.64 2.73 1.10 0.65 0.54 0.74 0.89 1.27 1.39 2.80 2.23 3.21
1.86 1.86 1.67 1.60 1.30 1.33 1.51 2.18 2.31 2.58 2.62 2.99 3.77 3.76 2.56 1.66 2.44 4.26 7.40 4.97 1.20 0.42 0.76 0.94 1.34 1.27 1.35 0.91 1.34 1.58 1.62 1.79 1.74 2.08 2.74 3.96 3.70 1.61 1.35 1.27 1.21 1.37 1.60 2.91 4.61 6.38 5.25
2.05 2.03 1.70 1.65 1.48 1.39 1.49 2.26 2.63 2.56 2.96 3.32 3.93 4.56 2.18 2.19 4.71 6.89 6.70 2.37 0.55 0.15 0.29 1.17 1.73 1.68 1.16 1.11 1.37 1.51 1.67 1.25 1.10 1.44 1.75 2.52 3.52 1.56 1.00 1.70 2.36 2.56 3.11 3.66 5.11 5.54 5.69
2.25 2.24 1.89 1.77 1.67 1.48 1.54 2.20 2.87 3.01 3.86 4.73 5.09 4.42 2.11 3.61 7.03 6.57 3.30 1.13 0.56 0.31 0.32 0.84 1.15 1.29 1.36 1.38 1.52 2.08 1.62 1.23 0.68 0.85 1.20 1.37 2.63 1.47 0.96 0.64 0.88 1.50 2.83 4.14 6.01 5.60 5.19
2.55 2.43 2.05 1.97 1.92 1.62 1.57 2.04 3.11 3.51 4.44 5.47 6.04 3.70 3.07 4.77 6.06 3.30 1.42 0.69 0.64 0.60 0.52 1.03 1.15 1.37 1.53 1.63 1.97 1.41 1.51 0.97 0.77 1.01 1.49 1.59 2.43 2.01 1.34 1.43 1.61 1.58 1.80 2.55 3.77 5.03 5.37
2.59 2.55 2.24 2.14 2.28 1.98 1.71 1.99 3.24 3.61 4.49 6.06 6.69 4.90 4.83 6.16 3.60 1.46 1.35 1.26 1.05 0.60 0.65 0.83 1.20 1.31 1.32 1.09 1.23 1.48 0.95 0.60 0.42 0.52 0.83 1.63 2.41 1.90 1.74 1.67 1.93 2.07 1.70 1.76 2.98 4.89 3.92
2.87 2.70 2.39 2.19 2.48 2.23 1.95 1.99 3.15 4.00 5.11 7.44 8.26 4.34 2.40 3.39 2.83 1.65 1.55 1.75 1.16 0.91 0.84 0.71 1.17 1.09 1.30 1.49 0.90 0.91 0.83 0.58 0.37 0.34 0.47 1.20 2.28 1.28 1.01 1.02 0.86 1.30 1.84 1.91 2.26 2.31 3.04
2.90 2.80 2.59 2.33 2.57 2.42 2.18 2.22 3.03 4.29 6.38 9.50 7.84 2.66 1.53 1.00 0.75 1.41 2.57 2.35 1.27 0.93 1.26 0.97 0.94 0.63 0.87 1.31 1.18 1.12 1.08 1.16 0.90 0.54 0.57 0.78 1.54 1.31 1.07 0.79 0.68 1.43 1.76 1.45 1.42 1.82 2.21
3.10 3.02 2.92 2.68 2.77 2.48 2.60 2.58 3.15 4.38 7.40 10.59 6.00 2.03 2.48 1.57 0.88 1.53 1.66 1.31 1.06 1.27 1.10 0.85 1.06 1.35 1.04 0.75 0.77 0.81 0.76 1.06 1.04 0.96 0.99 0.92 1.18 1.30 1.05 0.48 0.89 2.26 1.98 1.17 1.09 0.87 0.84
3.10 3.17 2.90 3.25 3.03 2.67 2.62 2.93 3.63 4.50 5.82 5.86 3.78 2.07 3.47 2.71 1.48 1.08 0.73 0.82 0.94 1.25 1.57 0.77 0.84 1.00 0.67 0.51 0.61 0.74 0.65 0.50 0.59 0.49 0.87 1.27 1.04 1.44 1.15 0.99 2.93 2.37 0.94 0.70 0.56 0.41 0.44
2.84 3.15 2.78 3.05 3.42 2.94 2.57 2.82 3.96 4.49 4.13 3.90 3.05 2.83 3.62 2.65 0.95 0.90 0.90 0.83 0.79 1.18 1.32 0.91 0.70 0.76 0.76 0.89 1.44 1.39 1.03 0.84 0.40 0.41 0.38 0.55 1.22 1.84 1.61 1.30 1.83 1.50 0.53 0.47 0.46 0.40 0.26
2.92 3.09 2.65 2.80 3.23 3.28 2.81 2.86 3.75 4.29 3.85 3.92 2.94 3.21 4.43 3.81 1.40 0.60 1.13 1.29 1.25 1.51 1.67 1.07 0.57 0.44 0.78 1.26 1.83 1.79 1.26 0.83 0.57 0.55 0.47 0.71 1.16 2.43 2.33 1.88 2.30 1.29 0.22 0.17 0.42 0.89 0.26
3.45 3.14 2.71 2.63 2.79 3.07 3.14 3.13 3.20 3.77 4.03 4.27 3.36 2.75 5.13 4.78 1.05 0.60 0.94 1.20 1.50 1.50 1.79 1.40 1.11 1.01 1.17 1.74 1.86 1.37 1.20 0.93 1.01 0.90 0.94 1.27 1.91 2.75 2.83 2.76 2.04 0.94 0.36 0.21 1.12 1.42 0.37
3.43 3.40 2.53 2.44 2.55 2.45 2.59 3.26 3.48 3.39 3.96 5.12 3.91 2.43 3.66 4.19 1.38 0.66 0.61 0.86 0.98 1.40 1.65 1.93 2.06 2.12 2.10 2.28 2.06 1.56 1.39 1.34 1.18 0.94 1.14 1.58 1.96 2.11 2.34 2.75 2.58 0.83 0.63 0.95 1.19 0.51 0.23
3.06 3.42 2.57 2.43 2.53 2.37 2.13 2.47 3.53 3.64 3.83 5.02 4.80 3.03 3.38 3.94 2.18 0.91 0.47 0.44 0.59 0.92 1.32 1.53 2.01 1.74 2.42 2.82 2.31 1.69 1.43 1.48 1.16 1.44 0.89 1.60 1.48 1.63 1.48 1.93 1.73 1.34 1.12 0.66 0.39 0.48 0.39

GFSGBSN_prec_precacc_345.txt.gz
Total_Precipitation_Accumulation
0.68 0.85 0.84 0.65 0.59 0.60 0.51 0.43 0.33 0.22 0.14 0.11 0.09 0.07 0.06 0.06 0.06 0.04 0.03 0.02 0.03 0.02 0.02 0.02 0.03 0.03 0.17 0.32 0.09 0.00 0.00 0.00 0.00 0.00 0.00 0.00 0.00 0.00 0.00 0.00 0.00 0.00 0.00 0.00 0.00 0.03 0.02
0.85 0.82 0.99 0.90 0.73 0.65 0.68 0.56 0.40 0.26 0.18 0.12 0.10 0.08 0.06 0.06 0.06 0.05 0.05 0.04 0.04 0.04 0.04 0.03 0.05 0.18 0.57 0.61 0.02 0.00 0.00 0.00 0.00 0.00 0.00 0.00 0.01 0.01 0.02 0.00 0.00 0.00 0.00 0.00 0.00 0.02 0.02
1.22 0.97 0.81 0.85 0.73 0.56 0.56 0.64 0.57 0.47 0.37 0.26 0.17 0.11 0.07 0.07 0.06 0.05 0.04 0.05 0.05 0.05 0.05 0.06 0.10 0.41 1.21 0.29 0.00 0.00 0.00 0.00 0.00 0.00 0.01 0.01 0.02 0.05 0.09 0.05 0.01 0.02 0.03 0.01 0.00 0.01 0.02
1.82 1.56 1.41 1.38 1.35 1.07 0.88 0.82 0.82 0.64 0.46 0.30 0.21 0.12 0.10 0.07 0.06 0.05 0.05 0.04 0.04 0.06 0.08 0.12 0.29 1.12 1.74 0.03 0.00 0.00 0.00 0.00 0.00 0.00 0.00 0.01 0.03 0.10 0.15 0.13 0.10 0.11 0.17 0.11 0.03 0.01 0.02
2.14 2.12 2.06 1.87 1.71 1.64 1.41 1.25 1.22 1.24 0.98 0.69 0.51 0.38 0.25 0.14 0.10 0.09 0.08 0.10 0.13 0.16 0.24 0.42 1.09 1.41 0.91 0.06 0.03 0.00 0.00 0.02 0.01 0.00 0.01 0.06 0.17 0.25 0.34 0.44 0.44 0.23 0.17 0.09 0.02 0.00 0.02
2.08 1.94 1.90 1.92 1.73 1.61 1.54 1.31 1.30 1.34 1.40 1.12 0.91 0.74 0.55 0.33 0.23 0.15 0.14 0.32 0.50 0.52 0.44 0.74 1.77 1.76 0.60 0.11 0.00 0.00 0.00 0.01 0.04 0.05 0.07 0.13 0.33 0.49 0.53 0.60 0.53 0.16 0.10 0.04 0.02 0.00 0.02
1.99 1.78 1.66 1.72 1.62 1.43 1.31 1.20 1.03 1.03 1.14 1.16 0.97 0.77 0.62 0.51 0.41 0.37 0.45 0.70 0.85 0.67 0.53 0.28 0.40 0.18 0.01 0.00 0.02 0.01 0.00 0.11 0.26 0.56 0.30 0.19 0.40 0.61 0.25 0.13 0.14 0.12 0.13 0.11 0.04 0.00 0.05
1.62 1.61 1.45 1.36 1.39 1.29 1.22 1.23 1.12 1.08 1.05 1.18 1.02 0.76 0.55 0.46 0.40 0.41 0.49 0.64 0.48 0.78 0.88 0.11 0.02 0.02 0.00 0.01 0.15 0.25 0.22 0.50 0.69 0.81 0.56 1.05 0.82 0.12 0.07 0.09 0.19 0.24 0.28 0.17 0.06 0.02 0.14
1.95 1.83 1.67 1.48 1.38 1.41 1.25 1.13 1.05 1.03 1.04 1.08 1.19 1.10 0.71 0.50 0.45 0.42 0.34 0.38 0.37 0.94 2.61 0.90 0.03 0.01 0.00 0.07 0.05 0.08 0.20 0.43 0.62 0.74 0.81 0.79 0.50 0.22 0.22 0.29 0.37 0.32 0.23 0.14 0.13 0.12 0.23
1.89 1.78 1.80 1.76 1.67 1.73 1.72 1.54 1.40 1.18 1.21 1.14 1.21 1.44 1.22 0.90 0.70 0.35 0.46 0.47 0.38 1.02 4.45 2.30 0.04 0.04 0.04 0.07 0.10 0.01 0.09 0.20 0.52 0.81 0.86 1.10 0.41 0.31 0.60 0.81 0.92 1.18 0.61 0.42 0.40 0.59 0.56
1.84 1.74 1.66 1.65 1.65 1.87 2.04 2.00 1.74 1.64 1.56 1.43 1.50 1.51 1.70 1.54 0.77 0.63 0.64 0.58 0.90 2.62 6.71 1.87 0.03 0.05 0.03 0.08 0.11 0.04 0.02 0.31 0.39 0.32 0.80 1.33 0.68 0.38 0.51 0.58 0.47 0.63 0.52 0.91 1.35 1.64 1.89
1.65 1.56 1.64 1.69 1.62 1.66 1.89 2.03 1.95 1.62 1.52 1.66 1.56 1.83 2.10 1.88 0.97 0.61 0.63 0.91 2.93 6.49 5.95 0.78 0.03 0.08 0.22 0.21 0.13 0.12 0.12 0.35 0.46 0.64 0.66 0.43 0.20 0.39 0.54 0.55 0.72 0.85 1.06 1.38 1.49 1.69 3.05
1.39 1.39 1.35 1.42 1.49 1.62 2.05 2.06 2.16 1.83 1.81 1.90 1.82 2.07 2.36 1.88 1.12 0.80 1.22 2.71 6.64 6.59 1.47 0.17 0.07 0.12 0.20 0.30 0.39 0.45 0.63 0.75 1.09 1.41 0.88 0.43 0.22 0.09 0.21 0.49 0.55 1.05 1.94 3.28 3.35 3.35 3.22
1.58 1.41 1.30 1.28 1.28 1.32 1.83 2.10 2.14 2.16 2.01 2.24 2.29 2.20 2.52 1.62 1.30 1.70 2.91 5.70 7.22 2.06 0.25 0.06 0.04 0.07 0.24 0.42 0.52 0.57 0.83 1.09 1.21 1.46 1.70 1.46 0.97 0.36 0.39 0.58 0.68 0.60 1.35 3.33 3.81 2.27 1.88
1.69 1.60 1.46 1.35 1.22 1.27 1.49 2.08 2.18 2.37 2.38 2.60 3.14 2.81 2.72 1.79 1.72 2.82 5.50 7.58 3.32 0.68 0.38 0.26 0.15 0.51 0.70 0.77 0.98 0.76 0.68 0.97 1.60 2.47 3.72 3.64 2.73 1.10 0.65 0.54 0.74 0.89 1.27 1.39 2.80 2.24 3.22
1.89 1.86 1.67 1.60 1.30 1.33 1.51 2.18 2.31 2.58 2.62 2.99 3.77 3.76 2.56 1.66 2.44 4.26 7.40 4.97 1.20 0.42 0.76 0.94 1.34 1.27 1.35 0.91 1.34 1.58 1.62 1.79 1.74 2.08 2.74 3.96 3.70 1.61 1.35 1.27 1.21 1.37 1.60 2.91 4.61 6.39 5.28
2.08 2.03 1.70 1.65 1.48 1.39 1.49 2.26 2.63 2.56 2.96 3.32 3.93 4.56 2.18 2.19 4.71 6.89 6.70 2.37 0.55 0.15 0.29 1.17 1.73 1.68 1.16 1.11 1.37 1.51 1.67 1.25 1.10 1.44 1.75 2.52 3.52 1.56 1.00 1.70 2.36 2.56 3.11 3.66 5.11 5.54 5.72
2.26 2.24 1.89 1.77 1.67 1.48 1.54 2.20 2.87 3.01 3.86 4.73 5.09 4.42 2.11 3.61 7.03 6.57 3.30 1.13 0.56 0.31 0.32 0.84 1.15 1.29 1.36 1.38 1.52 2.08 1.62 1.23 0.68 0.85 1.20 1.37 2.63 1.47 0.96 0.64 0.88 1.50 2.83 4.14 6.01 5.60 5.19
2.56 2.43 2.05 1.97 1.92 1.62 1.57 2.04 3.11 3.51 4.44 5.47 6.04 3.70 3.07 4.77 6.06 3.30 1.42 0.69 0.64 0.60 0.52 1.03 1.15 1.37 1.53 1.63 1.97 1.41 1.51 0.97 0.77 1.01 1.49 1.59 2.43 2.01 1.34 1.43 1.61 1.58 1.80 2.55 3.77 5.03 5.37
2.59 2.56 2.24 2.14 2.28 1.98 1.71 1.99 3.24 3.61 4.49 6.06 6.69 4.90 4.83 6.16 3.60 1.46 1.35 1.26 1.05 0.60 0.65 0.83 1.20 1.31 1.32 1.09 1.23 1.48 0.95 0.60 0.42 0.52 0.83 1.63 2.41 1.90 1.74 1.67 1.93 2.07 1.70 1.76 2.98 4.89 3.92
2.88 2.70 2.39 2.19 2.48 2.23 1.95 1.99 3.15 4.00 5.11 7.44 8.26 4.34 2.40 3.39 2.83 1.65 1.55 1.75 1.16 0.91 0.84 0.71 1.17 1.09 1.30 1.49 0.90 0.91 0.83 0.58 0.37 0.34 0.47 1.20 2.28 1.28 1.01 1.02 0.86 1.30 1.84 1.91 2.26 2.31 3.04
2.91 2.80 2.59 2.33 2.57 2.42 2.18 2.22 3.03 4.29 6.38 9.50 7.84 2.66 1.53 1.00 0.75 1.41 2.57 2.35 1.27 0.93 1.26 0.97 0.94 0.63 0.87 1.31 1.18 1.12 1.08 1.16 0.90 0.54 0.57 0.78 1.54 1.31 1.07 0.79 0.68 1.43 1.76 1.45 1.42 1.82 2.21
3.10 3.02 2.92 2.68 2.77 2.48 2.60 2.58 3.15 4.38 7.40 10.59 6.00 2.03 2.48 1.57 0.88 1.53 1.66 1.31 1.06 1.27 1.10 0.85 1.06 1.35 1.04 0.75 0.77 0.81 0.76 1.06 1.04 0.96 0.99 0.92 1.19 1.30 1.07 0.48 0.89 2.27 1.98 1.17 1.09 0.87 0.84
3.10 3.17 2.90 3.25 3.03 2.67 2.62 2.93 3.63 4.50 5.82 5.86 3.78 2.07 3.47 2.71 1.48 1.08 0.73 0.82 0.94 1.25 1.57 0.77 0.84 1.00 0.67 0.51 0.61 0.74 0.65 0.50 0.59 0.49 0.87 1.27 1.07 1.50 1.18 1.01 2.96 2.38 0.94 0.70 0.56 0.41 0.44
2.84 3.15 2.78 3.05 3.42 2.94 2.57 2.82 3.96 4.49 4.13 3.90 3.05 2.83 3.62 2.65 0.95 0.90 0.90 0.83 0.79 1.18 1.32 0.91 0.70 0.76 0.76 0.89 1.44 1.39 1.03 0.84 0.40 0.41 0.38 0.55 1.23 1.96 1.65 1.36 1.87 1.50 0.53 0.47 0.46 0.41 0.26
2.92 3.09 2.65 2.80 3.23 3.28 2.81 2.86 3.75 4.29 3.85 3.92 2.94 3.21 4.43 3.81 1.40 0.60 1.13 1.29 1.25 1.51 1.67 1.07 0.57 0.44 0.78 1.26 1.83 1.79 1.26 0.83 0.57 0.55 0.47 0.73 1.18 2.58 2.35 1.94 2.35 1.30 0.22 0.17 0.42 0.89 0.26
3.45 3.14 2.71 2.63 2.79 3.07 3.14 3.13 3.20 3.77 4.03 4.27 3.36 2.75 5.13 4.78 1.05 0.60 0.94 1.20 1.50 1.50 1.79 1.40 1.11 1.01 1.17 1.74 1.86 1.37 1.20 0.93 1.01 0.91 0.94 1.32 1.97 2.79 2.93 2.80 2.07 0.94 0.36 0.21 1.12 1.42 0.37
3.43 3.40 2.53 2.44 2.55 2.45 2.59 3.26 3.48 3.39 3.96 5.12 3.91 2.43 3.66 4.19 1.38 0.66 0.61 0.86 0.98 1.40 1.65 1.93 2.06 2.12 2.10 2.28 2.06 1.56 1.39 1.34 1.19 0.94 1.15 1.59 1.98 2.23 2.40 2.80 2.60 0.83 0.63 0.96 1.19 0.51 0.23
3.06 3.42 2.57 2.43 2.53 2.37 2.13 2.47 3.53 3.64 3.83 5.02 4.80 3.03 3.38 3.94 2.18 0.91 0.47 0.44 0.59 0.92 1.32 1.53 2.01 1.74 2.42 2.82 2.31 1.69 1.43 1.48 1.16 1.44 0.89 1.61 1.50 1.67 1.51 1.96 1.73 1.34 1.12 0.66 0.39 0.48 0.39